Flag Weather past 2 weeks in Los Angeles, California, U.S.A.

Now
77 °F

Sunny.


Feels Like: 77 °F
Forecast: 54 / 78 °F
Wind: No wind

Location: Los Angeles / USC Campus Downtown

Current Time: Nov 28, 2014 at 12:53:07 PM

Latest Report: Nov 28, 2014 at 11:47 AM


Visibility: 10 mi

Pressure: 29.94 "Hg

Humidity: 18%

Dew point: 31 °F

Location of Los AngelesLocation

Historic Weather in Los Angeles — Graph

°F

Los Angeles temperature yesterday

Maximum temperature yesterday: 89 °F (at 1:47 PM)
Minimum temperature yesterday: 59 °F (at 11:47 PM)
Average temperature yesterday: 70 °F

Past Weeks' High & Low Weather Summary

 TemperatureHumidityPressure
High89 °F (Nov 27, 1:47 PM)90% (Nov 15, 12:47 AM)30.38 "Hg (Nov 15, 12:47 AM)
Low53 °F (Nov 18, 4:47 AM)7% (Nov 23, 3:47 PM)29.92 "Hg (Nov 21, 4:47 AM)
Average64 °F47%30.08 "Hg
* Reported Nov 13 11:47 AM — Nov 28 11:47 AM, Los Angeles, Weather by CustomWeather, © 2014

Note: Actual official high and low records may vary slightly from our data, if they occured in-between our weather recording intervals... More about our weather records

Advertising

Los Angeles weather history for previous 24 hours

 ConditionsComfort  
Time TempWeatherWind HumidityBarometerVisibility
11:47 AM
Nov 28
77 °FSunny.No wind18%29.94 "Hg10 mi
10:47 AM76 °FSunny.No wind19%29.97 "Hg10 mi
9:47 AM72 °FSunny.No wind19%29.98 "Hg10 mi
8:47 AM64 °FSunny.No wind35%29.99 "Hg10 mi
7:47 AM57 °FSunny.No wind44%29.98 "Hg10 mi
6:47 AM54 °FSunny.No wind45%29.98 "Hg10 mi
5:47 AM58 °FClear.No wind33%29.97 "Hg10 mi
4:47 AM54 °FClear.No wind47%29.96 "Hg10 mi
3:47 AM54 °FClear.No wind49%29.97 "Hg10 mi
2:47 AM56 °FClear.No wind49%29.98 "Hg10 mi
1:47 AM56 °FClear.No wind47%29.98 "Hg10 mi
12:47 AM58 °FClear.No wind47%29.98 "Hg10 mi
11:47 PM
Nov 27
59 °FClear.No wind49%29.99 "Hg10 mi
10:47 PM60 °FClear.No wind53%30.00 "Hg10 mi
9:47 PM65 °FClear.No wind36%30.00 "Hg10 mi
8:47 PM63 °FClear.No wind56%30.00 "Hg10 mi
7:47 PM63 °FClear.No wind50%30.00 "Hg10 mi
6:47 PM66 °FClear.No wind43%30.00 "Hg10 mi
5:47 PM70 °FClear.No wind35%29.99 "Hg10 mi
4:47 PM75 °FClear.5 mph26%29.98 "Hg10 mi
3:47 PM82 °FSunny.3 mph18%29.98 "Hg10 mi
2:47 PM85 °FSunny.No wind17%29.98 "Hg10 mi
1:47 PM89 °FSunny.No wind7%29.98 "Hg10 mi
12:47 PM88 °FSunny.No wind9%30.01 "Hg10 mi
Weather by CustomWeather, © 2014

See weather overviewHow to use our weather pages